Location: Unspecified
(49.9820°N, 20.4363°E)
Time: 04:53:27
(UTC+02:00)

Vanguard 3 - Pass Details

Date: 14 May 2026
Orbit: 507 x 3204 km, 33.3° (Epoch: 6 June)

Event Time Altitude Azimuth Distance (km) Brightness Sun altitude
Rises 15:49:06 0° 243° (WSW) 6,993 12.8 40.4°
Reaches altitude 10° 15:54:01 10° 238° (WSW) 6,087 12.8 39.7°
Maximum altitude 16:11:30 43° 176° (S) 3,768 11.1 37.0°
Drops below altitude 10° 16:25:28 10° 112° (ESE) 4,930 10.8 34.8°
Sets 16:28:57 0° 105° (ESE) 5,614 11.0 34.3°
